Theta_e
328 328 325 323 323 323 323 322 321 320 320 320 320 319 319 319 319 318 318 318 318 317 316 316 316 316 317 317 316 315 316 317 316 316 317 316 317 318 318 318 318 316
328 328 326 324 323 323 323 322 321 320 320 320 320 319 319 319 319 319 319 318 318 319 318 317 317 316 316 317 316 315 316 316 315 314 315 315 315 316 317 317 317 316
330 329 328 326 325 325 325 323 321 320 321 321 320 319 319 319 320 320 319 318 319 320 319 318 317 316 317 317 316 316 316 316 315 315 315 315 315 316 316 317 317 316
330 330 328 327 326 326 326 324 322 322 322 322 320 319 320 320 320 320 320 319 319 320 320 320 319 318 318 317 316 317 316 317 317 316 316 316 316 316 316 316 317 316
330 329 328 327 324 323 323 323 323 322 322 322 320 320 320 320 320 320 320 320 320 321 321 320 320 320 320 319 318 318 318 318 318 317 316 316 316 316 316 316 316 316
329 328 328 327 325 322 321 321 321 320 320 321 321 320 320 320 320 320 320 321 321 321 322 321 321 321 321 320 320 320 319 319 319 318 317 317 316 316 316 316 316 315
328 327 327 328 326 323 321 320 319 318 319 321 321 320 320 320 320 320 321 321 321 322 322 322 322 322 322 321 321 322 321 320 320 320 319 318 317 316 316 316 316 315
327 327 328 329 328 325 321 320 320 319 320 322 321 320 320 320 320 321 322 322 322 322 322 322 323 323 323 323 323 322 322 322 321 321 320 320 319 318 317 317 317 316
328 329 329 329 329 326 322 320 321 320 320 321 322 322 321 321 320 321 322 322 322 322 323 323 323 323 324 324 324 323 323 323 322 322 322 321 321 321 320 319 318 318
329 330 329 328 328 327 324 322 321 322 322 321 321 321 321 321 321 321 321 322 322 322 322 323 323 324 324 324 324 324 324 323 323 323 323 323 322 322 321 321 321 321
330 330 329 328 328 326 325 323 322 322 322 321 320 320 321 321 321 321 321 321 322 322 322 322 323 323 324 324 324 324 324 323 323 323 323 323 323 323 322 322 322 322
329 331 330 329 328 327 326 324 322 322 322 321 321 320 321 321 321 321 321 322 322 323 322 322 323 322 322 323 324 324 324 324 323 323 324 323 323 323 322 322 322 322
328 330 331 330 329 329 327 325 324 323 322 321 322 322 322 322 321 322 323 323 323 323 323 323 323 322 323 323 324 323 324 324 324 324 324 324 324 323 322 322 322 321
326 326 328 328 328 327 325 325 325 324 323 322 322 322 323 322 322 323 324 323 323 323 323 323 323 323 323 324 323 323 324 324 324 324 324 324 323 323 322 323 323 323
325 324 325 325 325 324 324 324 325 324 323 323 323 323 323 323 323 323 324 324 324 324 323 324 324 323 323 324 324 324 324 324 324 323 323 322 321 322 323 324 324 323
325 324 324 324 323 323 323 323 324 325 324 322 323 323 323 322 322 322 323 323 322 323 324 325 323 323 323 324 323 322 322 322 323 323 323 322 320 320 323 324 323 323
325 325 324 324 323 322 322 322 323 325 324 322 322 322 321 321 321 321 322 322 320 320 321 322 322 322 323 321 320 320 321 322 322 322 322 321 319 319 321 322 322 323
324 324 324 324 323 322 322 323 323 323 322 320 319 319 319 319 319 321 322 321 320 320 321 322 322 321 319 319 318 318 319 320 320 319 319 320 319 318 319 320 320 320
324 324 324 324 324 323 322 322 322 321 321 320 320 319 320 320 321 321 322 321 320 320 320 318 316 315 314 313 314 314 314 316 318 318 317 317 317 317 317 317 317 316
324 324 324 324 324 323 323 322 321 320 321 321 321 321 321 322 322 321 321 321 320 319 317 313 310 309 308 308 309 308 308 311 314 315 315 316 316 316 316 316 315 315
319 320 320 321 322 322 322 322 322 321 321 321 321 321 321 321 320 319 318 318 318 317 315 310 306 306 306 305 305 304 303 307 313 314 314 315 316 316 316 316 316 316
315 315 316 317 318 318 319 320 320 320 320 320 320 319 319 318 317 317 317 316 315 315 313 309 305 304 304 303 302 303 306 311 313 313 314 315 315 315 316 316 316 316
313 313 313 314 314 315 316 316 317 317 317 317 317 316 316 315 315 315 314 314 314 313 312 309 306 303 303 303 302 304 310 314 313 312 314 314 313 314 315 314 314 314
312 312 312 313 313 313 314 313 313 314 314 314 314 314 314 314 314 313 312 312 312 312 313 311 307 304 304 304 302 303 308 313 312 311 312 312 312 313 313 311 312 313
311 312 312 312 312 312 313 312 312 312 312 312 312 312 312 312 312 312 311 311 311 312 313 312 308 305 304 304 303 302 306 311 312 310 310 311 311 311 311 310 310 311
311 311 311 311 311 311 312 311 311 311 312 312 312 311 311 311 311 311 311 311 312 311 311 312 310 307 305 305 303 302 304 308 311 310 309 310 310 309 310 309 307 307
Wind_Speed
10 11 12 12 13 12 12 12 12 12 12 12 12 12 12 10 10 10 10 10 9 9 9 8 8 8 8 8 8 8 8 8 9 9 9 9 9 10 10 10 10 9
9 10 11 12 12 12 11 11 11 12 12 12 13 13 13 12 11 10 10 10 9 9 9 9 8 8 8 8 8 8 8 8 8 9 9 9 9 9 9 9 9 9
8 9 9 10 12 12 12 11 11 11 11 12 13 14 14 13 12 11 10 10 10 9 9 9 8 8 8 8 8 8 8 9 9 8 9 9 9 9 9 9 9 9
8 8 9 10 11 12 13 13 12 11 11 12 13 13 14 14 13 12 11 10 10 10 9 9 8 8 8 8 8 8 8 8 8 7 8 8 8 8 8 8 8 8
9 9 9 10 11 12 13 14 13 13 12 12 12 13 14 14 14 13 11 10 10 10 10 9 9 8 8 7 7 7 7 6 6 6 7 7 7 7 7 7 7 7
12 11 11 11 12 13 14 13 13 14 14 12 12 12 13 14 14 13 12 11 10 10 10 10 9 9 8 7 6 6 6 6 5 5 6 6 5 5 5 5 5 6
15 15 13 13 14 14 13 13 13 14 14 12 12 12 12 13 13 13 13 12 11 10 10 10 9 9 8 7 6 6 5 5 4 4 4 5 4 4 4 4 3 4
17 17 15 14 14 14 13 14 14 14 14 13 13 13 13 13 13 13 13 12 11 11 10 10 10 9 9 8 7 7 6 5 4 3 3 3 3 2 3 3 2 2
17 16 15 15 15 14 14 14 15 15 14 14 14 14 14 13 14 14 13 12 12 11 10 10 10 9 9 9 9 8 7 6 5 5 4 4 3 2 3 3 2 1
16 14 14 15 15 15 15 15 15 15 15 15 14 14 15 14 14 14 14 13 12 11 11 10 10 10 9 9 9 8 7 7 6 6 6 6 5 4 3 3 3 2
15 13 13 16 17 17 17 17 16 15 15 15 15 14 14 14 14 14 14 13 12 11 11 10 10 10 10 9 9 8 6 6 7 6 7 7 7 6 5 5 4 4
13 12 12 14 15 14 14 14 15 15 14 14 14 15 15 14 14 14 13 13 12 11 11 11 11 11 10 9 8 8 7 7 7 7 8 8 8 8 8 7 7 6
10 10 11 11 11 11 10 8 10 13 15 14 15 15 15 15 14 13 13 12 12 11 11 11 11 10 10 9 8 8 8 8 8 9 9 9 9 9 8 7 7 7
10 8 8 9 10 12 13 11 12 15 15 15 16 16 15 14 14 14 13 13 12 12 11 10 10 9 8 8 8 8 8 9 9 10 11 11 10 8 6 5 5 5
11 9 8 8 8 11 14 16 16 14 12 10 10 11 11 10 10 8 8 10 9 9 9 9 8 7 6 7 8 8 8 9 10 10 11 9 7 7 6 4 4 5
11 10 9 9 9 10 13 14 11 9 10 9 7 6 6 7 7 5 5 8 8 8 8 7 5 4 6 9 10 9 9 8 7 7 7 4 4 4 4 3 4 4
11 10 8 8 9 11 12 12 9 7 9 10 9 7 6 6 5 5 6 8 9 10 8 5 3 4 7 9 9 8 7 5 3 3 2 2 4 3 3 4 3 4
11 10 8 8 8 10 10 10 8 7 8 9 9 9 8 8 7 7 8 7 7 7 6 4 4 5 6 7 6 6 6 3 1 1 0 1 3 3 4 4 4 4
8 8 8 7 6 7 8 8 7 6 7 7 7 8 8 8 8 7 7 6 5 5 4 5 8 9 9 8 7 6 6 4 1 1 1 1 2 2 2 2 2 2
6 7 7 6 6 5 6 7 7 6 8 8 8 8 8 8 7 7 6 5 6 8 11 11 12 11 9 8 6 4 3 3 1 1 1 2 2 1 1 1 1 1
6 7 7 7 7 6 5 6 6 6 8 9 9 9 9 8 9 9 8 7 8 10 11 11 10 9 8 6 5 3 3 4 3 1 1 2 2 1 1 1 1 2
7 6 6 6 7 7 7 6 7 8 8 9 8 8 8 9 10 10 10 8 8 9 9 10 10 8 7 6 5 5 5 4 2 2 3 3 2 2 3 2 1 1
5 4 4 4 5 6 7 7 7 8 8 8 8 8 8 9 9 9 9 9 8 9 9 9 9 8 7 6 6 6 6 3 3 3 4 3 2 3 3 1 2 2
4 3 3 3 3 4 5 5 5 6 6 6 7 7 7 8 8 8 8 8 8 9 9 10 9 8 7 6 5 6 6 3 3 3 3 2 3 4 4 2 4 5
2 1 0 1 2 2 3 4 3 4 4 5 6 7 7 8 8 8 8 8 8 8 9 10 10 8 8 6 5 5 5 3 4 4 3 2 2 3 4 4 3 3
2 3 3 4 4 4 4 5 5 5 5 6 6 7 8 8 9 9 9 9 8 8 8 9 9 10 9 7 6 5 5 3 4 4 4 4 4 4 5 6 5 2
Wind_Direction
156 157 152 146 145 147 150 152 152 151 149 145 143 139 134 129 123 119 113 109 105 98 95 91 87 86 83 76 74 79 76 70 69 64 61 60 58 54 49 44 38 36
167 162 154 148 145 147 151 151 151 152 149 148 147 141 138 135 131 129 124 119 113 105 100 95 90 89 89 85 81 82 79 75 73 68 65 64 62 59 50 45 41 35
172 165 153 145 144 147 150 149 149 152 150 149 149 145 143 141 139 137 134 129 123 115 110 104 100 97 94 93 88 86 85 81 78 74 70 67 62 60 55 48 42 38
182 170 152 143 148 151 151 152 153 154 153 152 152 152 149 146 145 144 142 139 134 130 127 119 114 109 103 99 93 89 87 83 82 79 76 73 68 64 59 54 49 45
190 179 164 154 156 159 158 160 159 157 158 157 158 160 155 150 149 148 149 149 145 143 140 135 131 126 119 113 106 102 97 89 85 81 80 77 72 70 67 63 58 50
192 187 177 166 165 166 166 166 163 160 161 164 164 165 162 157 153 153 155 155 153 152 150 147 143 138 134 128 121 117 110 103 100 97 95 87 76 75 71 67 67 58
193 192 182 174 172 171 170 168 166 164 165 168 170 170 170 165 159 159 161 160 159 159 157 156 153 147 145 140 133 127 120 116 119 117 109 101 95 93 82 64 61 68
190 190 181 176 174 171 171 172 171 173 173 173 174 176 177 174 167 164 166 167 166 166 164 163 159 156 153 148 143 138 135 134 137 134 119 115 125 128 113 101 73 66
186 187 180 176 174 172 175 177 177 179 180 181 180 179 181 180 173 169 171 174 174 172 173 173 168 163 161 158 154 153 152 150 152 155 150 148 165 176 154 141 141 148
186 185 181 176 174 176 180 181 182 183 185 186 185 183 184 184 178 175 176 179 182 183 183 182 177 172 170 168 164 163 167 169 173 176 175 178 185 189 188 176 180 200
185 184 183 177 177 184 186 183 183 185 188 190 190 189 188 185 183 183 183 185 189 192 191 189 186 183 182 180 175 177 182 184 191 197 195 198 201 199 202 198 197 214
184 182 187 183 181 186 186 184 187 188 191 193 193 194 192 190 191 190 191 194 197 199 201 198 196 198 200 198 192 195 201 203 208 211 211 213 212 208 207 204 202 212
190 187 185 182 183 180 173 184 198 194 196 200 199 199 197 195 199 199 197 201 202 204 208 210 207 206 206 205 208 214 215 216 221 219 216 216 212 211 214 210 209 214
188 196 178 170 182 183 180 195 202 195 202 208 204 204 202 200 207 207 202 205 212 214 214 214 212 209 208 211 218 224 219 219 227 226 224 220 207 201 207 211 219 228
176 186 182 167 167 175 185 199 200 197 215 230 222 212 203 205 221 224 208 205 214 222 213 203 204 207 211 218 221 222 222 226 233 234 233 225 199 187 189 199 220 230
171 176 180 171 168 181 198 208 203 198 215 231 240 223 198 206 228 244 234 214 218 239 229 202 205 216 212 222 230 229 229 234 235 238 242 216 167 178 194 197 220 216
158 160 161 159 170 185 198 208 208 201 205 209 212 210 209 225 232 243 245 224 220 241 240 207 204 218 213 222 229 221 215 219 212 219 249 151 131 153 180 176 191 188
139 144 144 145 157 166 176 192 199 193 196 205 213 220 232 242 239 239 241 229 221 234 235 210 190 182 179 183 180 173 167 158 158 174 185 101 121 137 157 160 168 172
133 139 140 138 142 154 171 185 188 186 184 188 204 218 223 223 220 220 222 224 219 204 173 153 147 139 136 137 134 136 136 124 89 62 89 72 84 97 113 127 147 157
131 132 136 143 148 157 173 176 176 187 188 179 183 192 193 186 177 168 164 173 172 147 127 126 133 129 124 125 123 121 128 127 102 69 101 92 82 81 67 60 5 324
127 129 133 143 151 152 157 156 151 163 176 176 176 177 173 162 148 141 140 148 149 133 122 125 130 124 120 120 118 116 125 124 118 126 146 122 104 96 69 40 6 334
114 119 127 137 145 145 142 143 143 148 158 162 160 159 159 153 145 143 146 147 143 133 125 126 128 124 122 120 116 121 125 129 152 166 139 121 112 104 97 85 76 56
103 109 120 128 140 146 143 141 142 145 151 155 155 156 157 153 149 152 157 155 152 147 138 134 136 135 131 128 129 135 138 160 208 168 126 111 122 107 93 133 180 156
92 101 120 133 154 158 152 151 150 150 155 162 164 167 167 166 166 167 167 167 165 160 150 146 148 148 144 140 137 142 154 200 229 170 137 122 133 111 78 88 157 151
53 39 88 195 223 193 164 171 182 185 185 188 192 192 187 185 185 181 176 174 170 164 159 157 159 161 160 152 141 148 165 227 268 224 180 173 182 149 101 91 126 161
278 270 266 263 262 253 225 220 235 241 223 212 215 213 203 199 198 192 185 181 175 169 173 172 167 171 174 165 155 159 170 211 281 263 205 204 225 203 153 135 134 166